Hugo Page

Intermarché-Wanty, Frankrike, 22 år

Pro Cycling Manager

Rittprogram

Informasjon

Hugo Page er en 22 år gammel profesjonell syklist fra Frankrike (født 24.juli 2001), som sykler for Intermarché-Wanty (UCI WorldTeam). Han har vunnet 1 UCI ritt, og er nummer 200 på UCI rankingen.

AlleLandeveiSykkelcross

2024 2023 2022 2021 2020 2019 2018

Intermarché-Wanty (WorldTour) UCI Ranking: 200 (462pts)
Alle Flatt Kupert Fjell Tempo Brosten
Dato Pos GC Ritt UCI
23.06 17 France RR | CN 2024-06-23Vis mer
10.03 Tirreno-Adriatico | 2.UWT 2024-03-10 Vis mer
10.03 77 Tirreno-Adriatico | Sammenlagt 2024-03-10
14.03 5 GP de Denain | 1.Pro 2024-03-1485Vis mer
18.02 Volta ao Algarve | 2.Pro 2024-02-18 Vis mer
18.02 114 Volta ao Algarve | Sammenlagt 2024-02-18
25.02 DNF Kuurne-Brussel-Kuurne | 1.Pro 2024-02-25Vis mer
24.02 44 Omloop Het Nieuwsblad | 1.UWT 2024-02-245Vis mer
10.02 16 Vuelta a Murcia | 1.1 2024-02-103Vis mer
28.01 71 Trofeo Palma | 1.1 2024-01-28Vis mer
27.01 14 Trofeo Andratx | 1.1 2024-01-275Vis mer
22.03 83 E3 Saxo Classic | 1.UWT 2024-03-22Vis mer
24.03 53 Gent - Wevelgem | 1.UWT 2024-03-245Vis mer
31.03 51 Ronde van Vlaanderen | 1.UWT 2024-03-3110Vis mer
09.06 Critérium du Dauphiné | 2.UWT 2024-06-09 Vis mer
09.06 93 Critérium du Dauphiné | Sammenlagt 2024-06-09
29.05 37 Circuit Franco-Belge | 1.Pro 2024-05-293Vis mer
26.05 28 Rund um Köln | 1.1 2024-05-26Vis mer
19.05 DNF Antwerp Port Epic | 1.1 2024-05-19Vis mer
09.05 11 Circuit de Wallonie | 1.1 2024-05-0915Vis mer
05.05 DNF Tro-Bro Leon | 1.Pro 2024-05-05Vis mer
04.05 64 GP de Plumelec-Morbihan | 1.Pro 2024-05-04Vis mer
07.04 34 Paris-Roubaix | 1.UWT 2024-04-0715Vis mer
25.01 128 Trofeo Ses Salines - Felanitx | 1.1 2024-01-25Vis mer
24.01 8 Trofeo Calvia | 1.1 2024-01-2430Vis mer
10.03 24 Tirreno-Adriatico | Ungdom 2024-03-10
09.06 24 Critérium du Dauphiné | Ungdom 2024-06-09
09.06 14 Critérium du Dauphiné | Poeng 2024-06-09
21.07 Tour de France 2.UWT 2024-07-21 Vis mer
14.07 129116 Tour de France | 15.etappe 2024-07-14
13.07 117115 Tour de France | 14.etappe 2024-07-13
12.07 53111 Tour de France | 13.etappe 2024-07-12
11.07 131122 Tour de France | 12.etappe 2024-07-11
10.07 155121 Tour de France | 11.etappe 2024-07-10
09.07 145105 Tour de France | 10.etappe 2024-07-09
07.07 17107 Tour de France | 9.etappe 2024-07-07
06.07 114122 Tour de France | 8.etappe 2024-07-06
05.07 76123 Tour de France | 7.etappe 2024-07-05
04.07 97126 Tour de France | 6.etappe 2024-07-04
03.07 171128 Tour de France | 5.etappe 2024-07-03
02.07 142120 Tour de France | 4.etappe 2024-07-02
01.07 6294 Tour de France | 3.etappe 2024-07-01
30.06 15596 Tour de France | 2.etappe 2024-06-30
29.06 6565 Tour de France | 1.etappe 2024-06-29
09.06 9093 Critérium du Dauphiné | 8.etappe 2024-06-09
08.06 103100 Critérium du Dauphiné | 7.etappe 2024-06-08
07.06 93113 Critérium du Dauphiné | 6.etappe 2024-06-07
05.06 108141 Critérium du Dauphiné | 4.etappe 2024-06-05
04.06 142137 Critérium du Dauphiné | 3.etappe 2024-06-04
03.06 143101 Critérium du Dauphiné | 2.etappe 2024-06-03
02.06 33 Critérium du Dauphiné | 1.etappe 2024-06-0230
10.03 1877 Tirreno-Adriatico | 7.etappe 2024-03-10
09.03 5582 Tirreno-Adriatico | 6.etappe 2024-03-09
08.03 158122 Tirreno-Adriatico | 5.etappe 2024-03-08
07.03 9299 Tirreno-Adriatico | 4.etappe 2024-03-07
06.03 82107 Tirreno-Adriatico | 3.etappe 2024-03-06
05.03 148145 Tirreno-Adriatico | 2.etappe 2024-03-05
04.03 104104 Tirreno-Adriatico | 1.etappe 2024-03-04
18.02 124114 Volta ao Algarve | 5.etappe 2024-02-18
17.02 91107 Volta ao Algarve | 4.etappe 2024-02-17
16.02 114107 Volta ao Algarve | 3.etappe 2024-02-16
15.02 110111 Volta ao Algarve | 2.etappe 2024-02-15
14.02 124125 Volta ao Algarve | 1.etappe 2024-02-14